This is the latest recevied weather packets stored in our database for station/object BX2AEA-13. If no packets are shown the sender has not sent any weather packets the latest 10 day(s).
| Time | Temp. | Humidity | Pressure | Rain* | Wind** | Luminosity | Snow |
|---|---|---|---|---|---|---|---|
| 1777417928 | 31.11° C | 43% | 1006.6 hPa | 0 mm | - | - | - |
| 1777417581 | 30.56° C | 43% | 1006.5 hPa | 0 mm | - | - | - |
| 1777417234 | 30° C | 44% | 1006.4 hPa | 0 mm | - | - | - |
| 1777416887 | 30° C | 44% | 1006.5 hPa | 0 mm | - | - | - |
| 1777416539 | 29.44° C | 44% | 1006.3 hPa | 0 mm | - | - | - |
| 1777416192 | 29.44° C | 44% | 1006.3 hPa | 0 mm | - | - | - |
| 1777415846 | 28.89° C | 44% | 1006.3 hPa | 0 mm | - | - | - |
| 1777415498 | 28.89° C | 44% | 1006.1 hPa | 0 mm | - | - | - |
| 1777415151 | 28.33° C | 45% | 1006.1 hPa | 0 mm | - | - | - |
| 1777414804 | 28.33° C | 44% | 1006 hPa | 0 mm | - | - | - |
| 1777414457 | 27.78° C | 43% | 1006 hPa | 0 mm | - | - | - |
| 1777414110 | 27.78° C | 43% | 1005.9 hPa | 0 mm | - | - | - |
| 1777413763 | 27.78° C | 43% | 1005.8 hPa | 0 mm | - | - | - |
| 1777413416 | 27.78° C | 43% | 1005.9 hPa | 0 mm | - | - | - |
| 1777413069 | 27.78° C | 42% | 1005.9 hPa | 0 mm | - | - | - |
| 1777412722 | 27.78° C | 42% | 1005.9 hPa | 0 mm | - | - | - |
| 1777412375 | 27.78° C | 42% | 1005.8 hPa | 0 mm | - | - | - |
| 1777412028 | 27.78° C | 42% | 1005.8 hPa | 0 mm | - | - | - |
| 1777411681 | 27.78° C | 42% | 1005.7 hPa | 0 mm | - | - | - |
| 1777411334 | 27.78° C | 42% | 1005.8 hPa | 0 mm | - | - | - |
| 1777410987 | 27.78° C | 42% | 1005.6 hPa | 0 mm | - | - | - |
| 1777410640 | 27.78° C | 41% | 1005.5 hPa | 0 mm | - | - | - |
| 1777410293 | 27.78° C | 41% | 1005.4 hPa | 0 mm | - | - | - |
| 1777409946 | 28.33° C | 41% | 1005.4 hPa | 0 mm | - | - | - |
| 1777409599 | 28.33° C | 41% | 1005.4 hPa | 0 mm | - | - | - |
* Rain latest hour (hover to see other rain measurements)
** Current wind speed in m/s (hover to see current wind gust speed)